Location: Gerlach
(40.6516°N, 119.3568°W)
Time: 15:24:59
(UTC-07:00)

A-11 Canister half - Pass Details

Date: 25 February 2024
Orbit: 1525 x 1683 km, 47.3° (Epoch: 21 April)

Event Time Altitude Azimuth Distance (km) Brightness Sun altitude
Rises 18:05:56 0° 187° (S) 4,812 11.8 -5.0°
Reaches altitude 10° 18:09:59 10° 173° (S) 3,802 11.1 -5.7°
Maximum altitude 18:16:49 22° 127° (SE) 2,914 10.1 -7.0°
Drops below altitude 10° 18:23:30 10° 81° (E) 3,731 10.3 -8.3°
Enters shadow 18:23:47 - 80° (E) 3,793 10.4 -8.3°
